• In Czech Republic
  • List of Countries
  • For 7 days
  • Water Temperature
  • Satellite Maps
  • Weather Map
  • Weather Widgets
  • user-avatar
    Login

    Hourly Weather Abomey

    Today, 14 November, Wednesday

    Time Temperature Precipitation Wind Pressure Humidity
    00:00 +27°C° 0 mm 2 mps 737 mmHg 84%
    01:00 +27°C° 0 mm 1 mps 737 mmHg 85%
    02:00 +26°C° 0 mm 1 mps 736 mmHg 86%
    03:00 +26°C° 0 mm 1 mps 736 mmHg 87%
    04:00 +26°C° 0 mm 1 mps 736 mmHg 88%
    05:00 +26°C° 0 mm 1 mps 737 mmHg 88%
    06:00 +26°C° 0 mm 1 mps 737 mmHg 87%
    07:00 +28°C° 0 mm 1 mps 737 mmHg 78%
    08:00 +30°C° 0 mm 2 mps 737 mmHg 69%
    09:00 +32°C° 0 mm 2 mps 738 mmHg 60%
    10:00 +34°C° 0 mm 1 mps 737 mmHg 51%
    11:00 +37°C° 0 mm 1 mps 737 mmHg 42%
    12:00 +38°C° 0 mm 0 mps 737 mmHg 33%
    13:00 +37°C° 0 mm 0 mps 736 mmHg 32%
    14:00 +40°C° 0 mm 1 mps 736 mmHg 30%
    15:00 +39°C° 0 mm 1 mps 735 mmHg 29%
    16:00 +36°C° 0 mm 1 mps 735 mmHg 36%
    17:00 +35°C° 0 mm 2 mps 736 mmHg 44%
    18:00 +32°C° 0 mm 2 mps 736 mmHg 51%
    19:00 +31°C° 0 mm 3 mps 736 mmHg 60%
    20:00 +30°C° 0 mm 3 mps 737 mmHg 69%
    21:00 +29°C° 0 mm 3 mps 738 mmHg 77%
    22:00 +28°C° 0 mm 3 mps 738 mmHg 79%
    23:00 +28°C° 0 mm 3 mps 738 mmHg 81%

    Tomorrow, 15 November, Thursday

    Time Temperature Precipitation Wind Pressure Humidity
    00:00 +28°C° 0 mm 3 mps 738 mmHg 83%
    01:00 +27°C° 0 mm 2 mps 737 mmHg 85%
    02:00 +27°C° 0 mm 2 mps 737 mmHg 87%
    03:00 +27°C° 0 mm 2 mps 737 mmHg 89%
    04:00 +27°C° 0 mm 2 mps 737 mmHg 89%
    05:00 +26°C° 0 mm 2 mps 737 mmHg 89%
    06:00 +26°C° 0 mm 2 mps 737 mmHg 90%
    07:00 +28°C° 0 mm 3 mps 738 mmHg 82%
    08:00 +29°C° 0 mm 3 mps 738 mmHg 75%
    09:00 +31°C° 0 mm 3 mps 738 mmHg 68%
    10:00 +34°C° 0 mm 2 mps 738 mmHg 61%
    11:00 +35°C° 0 mm 2 mps 738 mmHg 54%
    12:00 +36°C° 0 mm 1 mps 738 mmHg 47%
    13:00 +36°C° 0.1 mm 1 mps 737 mmHg 44%
    14:00 +37°C° 0.1 mm 1 mps 737 mmHg 40%
    15:00 +37°C° 0.1 mm 1 mps 736 mmHg 37%
    16:00 +36°C° 0.2 mm 2 mps 736 mmHg 45%
    17:00 +34°C° 0.2 mm 2 mps 736 mmHg 53%
    18:00 +31°C° 0.2 mm 3 mps 736 mmHg 62%
    19:00 +30°C° 0.4 mm 3 mps 737 mmHg 68%
    20:00 +29°C° 0.4 mm 3 mps 738 mmHg 75%
    21:00 +28°C° 0.4 mm 3 mps 739 mmHg 81%
    22:00 +28°C° 0 mm 3 mps 739 mmHg 83%
    23:00 +27°C° 0 mm 3 mps 739 mmHg 84%

    Day after tomorrow, 16 November, Friday

    Time Temperature Precipitation Wind Pressure Humidity
    00:00 +27°C° 0 mm 3 mps 739 mmHg 85%
    01:00 +27°C° 0 mm 3 mps 739 mmHg 86%
    02:00 +27°C° 0 mm 3 mps 738 mmHg 87%
    03:00 +26°C° 0 mm 2 mps 738 mmHg 88%
    04:00 +26°C° 0 mm 2 mps 738 mmHg 88%
    05:00 +26°C° 0 mm 2 mps 738 mmHg 89%
    06:00 +26°C° 0 mm 2 mps 739 mmHg 90%
    07:00 +27°C° 0 mm 2 mps 739 mmHg 82%
    08:00 +29°C° 0 mm 2 mps 740 mmHg 74%
    09:00 +31°C° 0 mm 3 mps 741 mmHg 66%
    10:00 +32°C° 0 mm 2 mps 740 mmHg 59%
    11:00 +35°C° 0 mm 2 mps 739 mmHg 53%
    12:00 +37°C° 0 mm 2 mps 739 mmHg 46%
    13:00 +37°C° 0 mm 2 mps 738 mmHg 45%
    14:00 +37°C° 0 mm 2 mps 738 mmHg 45%
    15:00 +37°C° 0 mm 3 mps 737 mmHg 44%
    16:00 +35°C° 0 mm 3 mps 737 mmHg 52%
    17:00 +33°C° 0 mm 3 mps 737 mmHg 60%
    18:00 +30°C° 0 mm 3 mps 737 mmHg 68%
    19:00 +29°C° 0 mm 3 mps 738 mmHg 72%
    20:00 +29°C° 0 mm 3 mps 739 mmHg 76%
    21:00 +28°C° 0 mm 3 mps 739 mmHg 80%
    22:00 +27°C° 0 mm 3 mps 739 mmHg 83%
    23:00 +27°C° 0 mm 2 mps 739 mmHg 85%

    17 November, Saturday

    Time Temperature Precipitation Wind Pressure Humidity
    00:00 +27°C° 0 mm 2 mps 739 mmHg 87%
    01:00 +26°C° 0 mm 2 mps 739 mmHg 89%
    02:00 +26°C° 0 mm 2 mps 738 mmHg 90%
    03:00 +26°C° 0 mm 2 mps 738 mmHg 92%
    04:00 +26°C° 0 mm 1 mps 738 mmHg 92%
    05:00 +26°C° 0 mm 1 mps 738 mmHg 93%
    06:00 +26°C° 0 mm 1 mps 739 mmHg 94%
    07:00 +27°C° 0 mm 1 mps 739 mmHg 86%
    08:00 +28°C° 0 mm 2 mps 740 mmHg 79%
    09:00 +30°C° 0 mm 2 mps 741 mmHg 71%
    10:00 +31°C° 0 mm 2 mps 740 mmHg 66%
    11:00 +32°C° 0 mm 2 mps 739 mmHg 61%
    12:00 +34°C° 0 mm 2 mps 739 mmHg 56%
    13:00 +34°C° 0 mm 2 mps 738 mmHg 55%
    14:00 +35°C° 0 mm 2 mps 738 mmHg 54%
    15:00 +35°C° 0 mm 3 mps 737 mmHg 53%
    16:00 +32°C° 0.1 mm 2 mps 737 mmHg 59%
    17:00 +31°C° 0.1 mm 2 mps 737 mmHg 65%
    18:00 +29°C° 0.1 mm 2 mps 737 mmHg 71%
    19:00 +29°C° 0 mm 2 mps 738 mmHg 75%
    20:00 +28°C° 0 mm 2 mps 739 mmHg 78%
    21:00 +27°C° 0 mm 3 mps 739 mmHg 82%
    22:00 +27°C° 0 mm 2 mps 739 mmHg 84%
    23:00 +27°C° 0 mm 2 mps 739 mmHg 86%

    18 November, Sunday

    Time Temperature Precipitation Wind Pressure Humidity
    00:00 +26°C° 0 mm 2 mps 738 mmHg 88%
    01:00 +26°C° 0.1 mm 2 mps 738 mmHg 89%
    02:00 +26°C° 0.1 mm 2 mps 738 mmHg 89%
    03:00 +26°C° 0.1 mm 2 mps 737 mmHg 90%
    04:00 +25°C° 0.1 mm 2 mps 738 mmHg 91%
    05:00 +25°C° 0.1 mm 2 mps 738 mmHg 92%
    06:00 +25°C° 0.1 mm 1 mps 739 mmHg 93%
    07:00 +27°C° 0 mm 2 mps 739 mmHg 84%
    08:00 +29°C° 0 mm 2 mps 740 mmHg 74%
    09:00 +31°C° 0 mm 3 mps 740 mmHg 65%
    10:00 +34°C° 0 mm 2 mps 740 mmHg 57%
    11:00 +35°C° 0 mm 2 mps 739 mmHg 50%
    12:00 +37°C° 0 mm 2 mps 738 mmHg 42%
    13:00 +36°C° 0 mm 2 mps 738 mmHg 44%
    14:00 +36°C° 0 mm 2 mps 737 mmHg 46%
    15:00 +35°C° 0 mm 2 mps 736 mmHg 48%
    16:00 +34°C° 0.1 mm 2 mps 737 mmHg 53%
    17:00 +31°C° 0.1 mm 2 mps 737 mmHg 59%
    18:00 +30°C° 0.1 mm 3 mps 737 mmHg 65%
    19:00 +29°C° 0 mm 3 mps 738 mmHg 69%
    20:00 +28°C° 0 mm 3 mps 738 mmHg 73%
    21:00 +27°C° 0 mm 2 mps 739 mmHg 78%
    22:00 +27°C° 0.1 mm 2 mps 739 mmHg 80%
    23:00 +27°C° 0.1 mm 2 mps 739 mmHg 83%

    19 November, Monday

    Time Temperature Precipitation Wind Pressure Humidity
    00:00 +26°C° 0.1 mm 2 mps 738 mmHg 85%
    01:00 +26°C° 0 mm 2 mps 738 mmHg 87%
    02:00 +26°C° 0 mm 2 mps 738 mmHg 89%
    03:00 +26°C° 0 mm 1 mps 737 mmHg 91%
    04:00 +25°C° 0 mm 1 mps 738 mmHg 91%
    05:00 +25°C° 0 mm 1 mps 738 mmHg 92%
    06:00 +25°C° 0 mm 1 mps 738 mmHg 93%
    07:00 +27°C° 0 mm 2 mps 739 mmHg 83%
    08:00 +29°C° 0 mm 2 mps 739 mmHg 74%
    09:00 +31°C° 0 mm 3 mps 740 mmHg 64%
    10:00 +32°C° 0 mm 2 mps 739 mmHg 59%
    11:00 +35°C° 0 mm 2 mps 738 mmHg 54%
    12:00 +36°C° 0 mm 2 mps 738 mmHg 49%
    13:00 +36°C° 0.1 mm 2 mps 737 mmHg 50%
    14:00 +35°C° 0.1 mm 2 mps 736 mmHg 52%
    15:00 +35°C° 0.1 mm 2 mps 736 mmHg 53%
    16:00 +32°C° 0.7 mm 2 mps 736 mmHg 61%
    17:00 +30°C° 0.7 mm 3 mps 737 mmHg 69%
    18:00 +29°C° 0.7 mm 3 mps 737 mmHg 77%
    19:00 +28°C° 0.4 mm 3 mps 737 mmHg 80%
    20:00 +27°C° 0.4 mm 2 mps 738 mmHg 83%
    21:00 +27°C° 0.4 mm 2 mps 739 mmHg 86%
    22:00 +27°C° 0 mm 2 mps 738 mmHg 87%
    23:00 +26°C° 0 mm 2 mps 738 mmHg 88%
    Show more